TAPIOLA Weather Reports


time (UTC)temp
C
wind
direction
speed
KPH
gust
KPH
rain 1hr
cm
rain 24hr
cm
rain mn
cm
humidity
%
barometer
mb
20260508114729 15 28 12.9 30.6 0.00 0.00 0.00 23 1026.2
20260508112730 15 29 19.3 33.8 0.00 0.00 0.00 22 1026.3
20260508110729 14 348 14.5 29.0 0.00 0.00 0.00 24 1026.3
20260508104729 14 341 16.1 29.0 0.00 0.00 0.00 24 1026.3
20260508102729 14 40 14.5 24.1 0.00 0.00 0.00 30 1026.2
20260508100729 13 26 17.7 32.2 0.00 0.00 0.00 27 1026.2
20260508094729 13 6 14.5 27.4 0.00 0.00 0.00 25 1026.1
20260508092729 13 360 11.3 24.1 0.00 0.00 0.00 32 1026.0
20260508090729 12 360 11.3 29.0 0.00 0.00 0.00 29 1026.2
20260508084729 12 356 20.9 29.0 0.00 0.00 0.00 31 1026.2
20260508082729 12 1 17.7 30.6 0.00 0.00 0.00 31 1026.1
20260508080730 11 25 17.7 32.2 0.00 0.00 0.00 31 1026.1
20260508072729 11 6 17.7 30.6 0.00 0.00 0.00 36 1025.9
20260508070730 10 353 20.9 30.6 0.00 0.00 0.00 37 1025.8
20260508064729 9 356 17.7 32.2 0.00 0.00 0.00 39 1025.7
20260508062728 8 351 20.9 30.6 0.00 0.00 0.00 42 1025.5
20260508060729 8 349 22.5 32.2 0.00 0.00 0.00 45 1025.3
20260508054729 8 353 16.1 29.0 0.00 0.00 0.00 46 1025.1
20260508052729 7 355 14.5 25.7 0.00 0.00 0.00 52 1024.9
20260508050728 6 351 19.3 29.0 0.00 0.00 0.00 53 1024.7
20260508044729 6 355 16.1 25.7 0.00 0.00 0.00 55 1024.5
20260508040728 5 350 14.5 20.9 0.00 0.00 0.00 58 1024.1
20260508034728 4 343 11.3 16.1 0.00 0.00 0.00 59 1023.9
20260508032728 3 341 11.3 17.7 0.00 0.00 0.00 60 1023.7
20260508030728 3 348 11.3 17.7 0.00 0.00 0.00 61 1023.5
20260508024727 3 347 11.3 16.1 0.00 0.00 0.00 61 1023.2
20260508022727 3 347 11.3 17.7 0.00 0.00 0.00 60 1022.9
20260508020728 3 346 12.9 17.7 0.00 0.00 0.00 59 1022.6
20260508014728 4 343 14.5 19.3 0.00 0.00 0.00 57 1022.4
20260508012727 4 348 17.7 24.1 0.00 0.00 0.00 55 1022.1
20260508010728 5 348 17.7 25.7 0.00 0.00 0.00 53 1021.9
20260508004727 5 348 16.1 24.1 0.00 0.00 0.00 53 1021.7
20260508002727 5 344 19.3 25.7 0.00 0.00 0.00 51 1021.4
20260508000728 5 345 16.1 25.7 0.00 0.00 0.00 51 1021.2
20260507234728 6 341 14.5 20.9 0.00 0.00 0.00 50 1021.0
20260507232727 6 338 14.5 20.9 0.00 0.00 0.00 50 1020.7
20260507230727 6 338 12.9 20.9 0.00 0.00 0.00 49 1020.4
20260507224726 6 338 16.1 22.5 0.00 0.00 0.00 47 1020.1
20260507222727 6 340 14.5 22.5 0.00 0.00 0.00 46 1020.0
20260507220727 6 337 14.5 20.9 0.00 0.00 0.00 46 1019.8
20260507214727 5 327 12.9 19.3 0.00 0.00 0.00 51 1019.5
20260507212727 5 325 11.3 17.7 0.00 0.00 0.00 49 1019.3
20260507210726 5 333 9.7 14.5 0.00 0.00 0.00 49 1019.0
20260507204727 6 336 14.5 19.3 0.00 0.00 0.00 45 1018.7
20260507202727 4 337 14.5 19.3 0.00 0.00 0.00 50 1018.5
20260507200727 4 308 8.0 11.3 0.00 0.00 0.00 49 1018.1
20260507194727 5 291 4.8 8.0 0.00 0.00 0.00 49 1017.9
20260507192726 6 255 6.4 9.7 0.00 0.00 0.00 44 1017.6
20260507190726 6 263 6.4 9.7 0.00 0.00 0.00 45 1017.4
20260507184727 7 237 8.0 14.5 0.00 0.00 0.00 39 1017.2
20260507182726 8 214 9.7 14.5 0.00 0.00 0.00 36 1017.0
20260507180725 9 217 9.7 17.7 0.00 0.00 0.00 33 1016.9
20260507174726 10 215 9.7 19.3 0.00 0.00 0.00 33 1016.9
20260507172725 10 205 12.9 17.7 0.00 0.00 0.00 33 1016.7
20260507170725 10 203 12.9 20.9 0.00 0.00 0.00 30 1016.7
20260507162726 10 202 14.5 24.1 0.00 0.00 0.00 31 1016.5
20260507160726 10 192 12.9 24.1 0.00 0.00 0.00 37 1016.4
20260507154726 10 178 12.9 19.3 0.00 0.00 0.00 34 1016.3
20260507152725 10 177 9.7 20.9 0.00 0.00 0.00 35 1016.2
20260507150727 10 177 11.3 20.9 0.00 0.00 0.00 35 1016.2
20260507142726 12 166 12.9 22.5 0.00 0.00 0.00 26 1016.1
20260507140725 12 170 14.5 22.5 0.00 0.00 0.00 24 1016.0
20260507134726 12 157 12.9 22.5 0.00 0.00 0.00 23 1015.9
20260507132725 12 182 11.3 17.7 0.00 0.00 0.00 23 1015.8
20260507130726 12 144 12.9 20.9 0.00 0.00 0.00 24 1015.8
20260507124725 12 154 14.5 20.9 0.00 0.00 0.00 25 1015.8
20260507122725 12 168 12.9 19.3 0.00 0.00 0.00 25 1015.9
20260507120725 12 166 16.1 20.9 0.00 0.00 0.00 25 1015.8